Location: Isernia
(41.6000°N, 14.2330°E)
Time: 04:52:47
(UTC+01:00)

ISS - Visible Passes

Search period start: 23 January 2019 00:00
Search period end: 02 February 2019 00:00
Orbit: 404 x 411 km, 51.6° (Epoch: 23 January)

Date Brightness Start Highest point End Pass type
(mag) Time Alt. Az. Time Alt. Az. Time Alt. Az.
23 Jan -3.9 18:37:11 10° SW 18:40:27 77° SE 18:41:04 55° ENE visible
24 Jan -3.1 17:46:04 10° SSW 17:49:10 40° SE 17:52:03 12° ENE visible
24 Jan -1.7 19:22:49 10° W 19:24:46 25° WNW 19:24:46 25° WNW visible
25 Jan -3.0 18:31:07 10° WSW 18:34:18 46° NNW 18:35:40 28° NNE visible
26 Jan -3.7 17:39:36 10° WSW 17:42:53 81° NW 17:46:12 10° NE visible
26 Jan -1.5 19:17:20 10° WNW 19:19:13 19° NNW 19:19:13 19° NNW visible
27 Jan -2.1 18:25:25 10° W 18:28:15 26° NNW 18:30:00 17° NNE visible
28 Jan -1.3 19:11:53 10° NW 19:13:26 15° NNW 19:13:26 15° NNW visible
29 Jan -1.6 18:19:55 10° WNW 18:22:15 18° NNW 18:24:08 12° NNE visible
30 Jan -1.3 19:06:08 10° NW 19:07:31 14° N 19:07:31 14° N visible
31 Jan -1.5 18:14:20 10° NW 18:16:19 15° N 18:18:11 10° NNE visible
01 Feb -1.5 18:59:56 10° NNW 19:01:34 16° N 19:01:34 16° N visible
